DLH7EK EDDH-EDDF

Flight info

Callsign DLH7EK
Flight time 0h 47m
Altitude 30000
Route AMLUH2G/33 AMLUH M852 DENIX DCT RIMET/N0444F310 T157 KOKEB/N0397F230 T157 KERAX KERAX5A
Aircraft A321/M-SDE3FGHIRWY/LB1

Departure

Time 2026-05-06 20:03
Airport Hamburg Helmut Schmidt Airport (EDDH)

Arrival

Time 2026-05-06 20:50
Airport Frankfurt Main Airport (EDDF)
Time Latitude Longitude Altitude Speed Heading
2026-05-06 19:42 53.63293 10.00348 49 ft 0 kts 87°
2026-05-06 19:56 53.63293 10.00337 49 ft 2 kts 87°
2026-05-06 19:56 53.63292 10.00311 49 ft 2 kts 87°
2026-05-06 19:56 53.63291 10.00286 49 ft 2 kts 87°
2026-05-06 19:57 53.63290 10.00261 49 ft 2 kts 87°
2026-05-06 19:57 53.63290 10.00236 49 ft 2 kts 87°
2026-05-06 19:57 53.63289 10.00211 49 ft 2 kts 96°
2026-05-06 19:57 53.63295 10.00187 49 ft 2 kts 128°
2026-05-06 19:58 53.63306 10.00171 49 ft 2 kts 156°
2026-05-06 19:58 53.63316 10.00166 49 ft 0 kts 174°
2026-05-06 19:58 53.63323 10.00165 49 ft 0 kts 176°
2026-05-06 20:00 53.63318 10.00166 49 ft 3 kts 176°
2026-05-06 20:00 53.63265 10.00173 48 ft 11 kts 175°
2026-05-06 20:00 53.63179 10.00185 48 ft 12 kts 175°
2026-05-06 20:01 53.63086 10.00189 48 ft 14 kts 192°
2026-05-06 20:01 53.63002 10.00109 47 ft 12 kts 214°
2026-05-06 20:01 53.62960 10.00061 47 ft 7 kts 213°
2026-05-06 20:01 53.62925 10.00002 47 ft 8 kts 234°
2026-05-06 20:02 53.62894 9.99911 46 ft 10 kts 243°
2026-05-06 20:02 53.62875 9.99761 46 ft 15 kts 301°
2026-05-06 20:02 53.63113 9.99535 46 ft 72 kts 333°
2026-05-06 20:02 53.63768 9.98969 47 ft 137 kts 332°
2026-05-06 20:03 53.64729 9.98131 317 ft 164 kts 336°
2026-05-06 20:03 53.65738 9.97247 929 ft 168 kts 337°
2026-05-06 20:03 53.66766 9.96348 1616 ft 168 kts 339°
2026-05-06 20:03 53.67807 9.95457 2059 ft 171 kts 340°
2026-05-06 20:04 53.68947 9.94749 2320 ft 179 kts 355°
2026-05-06 20:04 53.70217 9.94614 2596 ft 188 kts
2026-05-06 20:04 53.71563 9.94650 2886 ft 201 kts
2026-05-06 20:04 53.72855 9.95474 3268 ft 204 kts 41°
2026-05-06 20:05 53.73653 9.97445 3841 ft 208 kts 72°
2026-05-06 20:05 53.73924 9.99804 4541 ft 207 kts 78°
2026-05-06 20:05 53.74140 10.02210 5136 ft 211 kts 87°
2026-05-06 20:05 53.73847 10.04690 5693 ft 222 kts 111°
2026-05-06 20:06 53.73102 10.07053 6063 ft 239 kts 116°
2026-05-06 20:06 53.72245 10.09566 6422 ft 257 kts 117°
2026-05-06 20:06 53.71325 10.12260 6934 ft 269 kts 117°
2026-05-06 20:06 53.70391 10.15019 7687 ft 274 kts 117°
2026-05-06 20:07 53.69445 10.17813 8420 ft 278 kts 120°
2026-05-06 20:07 53.68165 10.20272 9090 ft 286 kts 144°
2026-05-06 20:07 53.66351 10.21644 9795 ft 290 kts 164°
2026-05-06 20:07 53.64418 10.22502 10409 ft 296 kts 165°
2026-05-06 20:08 53.62363 10.23392 10742 ft 312 kts 165°
2026-05-06 20:08 53.60193 10.24348 11040 ft 329 kts 165°
2026-05-06 20:08 53.57941 10.25357 11358 ft 345 kts 165°
2026-05-06 20:08 53.55573 10.26432 11727 ft 358 kts 165°
2026-05-06 20:09 53.53157 10.27533 12327 ft 363 kts 165°
2026-05-06 20:09 53.50744 10.28637 12983 ft 365 kts 165°
2026-05-06 20:09 53.48289 10.29759 13621 ft 368 kts 165°
2026-05-06 20:09 53.45808 10.30893 14240 ft 371 kts 166°
2026-05-06 20:10 53.43350 10.32011 14867 ft 373 kts 166°
2026-05-06 20:10 53.40841 10.33145 15457 ft 376 kts 166°
2026-05-06 20:10 53.38320 10.34278 16043 ft 378 kts 166°
2026-05-06 20:10 53.35769 10.35424 16622 ft 381 kts 166°
2026-05-06 20:11 53.33226 10.36565 17172 ft 383 kts 166°
2026-05-06 20:11 53.30645 10.37722 17710 ft 386 kts 166°
2026-05-06 20:11 53.28040 10.38890 18233 ft 389 kts 166°
2026-05-06 20:11 53.25425 10.40061 18741 ft 392 kts 166°
2026-05-06 20:12 53.22805 10.41231 19242 ft 395 kts 166°
2026-05-06 20:12 53.20139 10.42421 19742 ft 397 kts 166°
2026-05-06 20:12 53.17488 10.43603 20227 ft 400 kts 166°
2026-05-06 20:12 53.14785 10.44672 20699 ft 401 kts 171°
2026-05-06 20:13 53.12024 10.45208 21158 ft 402 kts 178°
2026-05-06 20:13 53.09231 10.45164 21613 ft 403 kts 185°
2026-05-06 20:13 53.06447 10.44811 22052 ft 406 kts 186°
2026-05-06 20:13 53.03614 10.44415 22473 ft 409 kts 186°
2026-05-06 20:14 53.00801 10.44017 22889 ft 411 kts 186°
2026-05-06 20:14 52.97948 10.43616 23300 ft 413 kts 186°
2026-05-06 20:14 52.95049 10.43210 23697 ft 416 kts 186°
2026-05-06 20:14 52.92162 10.42812 24084 ft 418 kts 186°
2026-05-06 20:15 52.89297 10.42418 24483 ft 420 kts 186°
2026-05-06 20:15 52.86385 10.42020 24898 ft 422 kts 186°
2026-05-06 20:15 52.83435 10.41616 25287 ft 424 kts 186°
2026-05-06 20:15 52.80517 10.41219 25656 ft 426 kts 186°
2026-05-06 20:16 52.77569 10.40819 26021 ft 428 kts 186°
2026-05-06 20:16 52.74601 10.40417 26381 ft 429 kts 186°
2026-05-06 20:16 52.71599 10.40011 26745 ft 431 kts 186°
2026-05-06 20:16 52.68574 10.39602 27093 ft 433 kts 186°
2026-05-06 20:17 52.65542 10.39192 27452 ft 434 kts 186°
2026-05-06 20:17 52.62544 10.38789 27935 ft 432 kts 186°
2026-05-06 20:17 52.59590 10.38392 28433 ft 429 kts 186°
2026-05-06 20:17 52.56595 10.37991 28858 ft 428 kts 186°
2026-05-06 20:18 52.53622 10.37592 29215 ft 429 kts 186°
2026-05-06 20:18 52.50667 10.37193 29529 ft 430 kts 186°
2026-05-06 20:18 52.47692 10.36795 29817 ft 430 kts 186°
2026-05-06 20:18 52.44690 10.36394 29846 ft 430 kts 186°
2026-05-06 20:19 52.38745 10.35601 29850 ft 430 kts 186°
2026-05-06 20:19 52.32816 10.34813 29845 ft 428 kts 186°
2026-05-06 20:20 52.26890 10.34028 29841 ft 426 kts 187°
2026-05-06 20:20 52.20993 10.33246 29842 ft 425 kts 186°
2026-05-06 20:21 52.15102 10.32471 29841 ft 424 kts 187°
2026-05-06 20:21 52.09231 10.31699 29847 ft 423 kts 187°
2026-05-06 20:22 52.03336 10.30925 29843 ft 421 kts 187°
2026-05-06 20:22 51.97521 10.30162 29838 ft 422 kts 187°
2026-05-06 20:23 51.91701 10.29402 29833 ft 419 kts 187°
2026-05-06 20:23 51.85845 10.28640 29832 ft 419 kts 187°
2026-05-06 20:24 51.80045 10.27886 29825 ft 418 kts 186°
2026-05-06 20:24 51.74226 10.27132 29823 ft 417 kts 186°
2026-05-06 20:25 51.68459 10.26389 29820 ft 416 kts 186°
2026-05-06 20:25 51.62667 10.25642 29822 ft 415 kts 186°
2026-05-06 20:26 51.56885 10.24900 29827 ft 415 kts 186°
2026-05-06 20:26 51.51142 10.24164 29829 ft 414 kts 186°
2026-05-06 20:27 51.45386 10.23429 29824 ft 413 kts 186°
2026-05-06 20:27 51.39651 10.22698 29817 ft 419 kts 186°
2026-05-06 20:28 51.33953 10.22002 29702 ft 433 kts 184°
2026-05-06 20:28 51.30930 10.21859 29419 ft 437 kts 181°
2026-05-06 20:28 51.27854 10.21813 29138 ft 439 kts 182°
2026-05-06 20:29 51.24793 10.21744 28864 ft 441 kts 182°
2026-05-06 20:29 51.21698 10.21674 28583 ft 443 kts 182°
2026-05-06 20:29 51.18631 10.21608 28308 ft 444 kts 182°
2026-05-06 20:29 51.15545 10.21545 28032 ft 446 kts 181°
2026-05-06 20:30 51.12420 10.21483 27755 ft 449 kts 181°
2026-05-06 20:30 51.06145 10.21369 27204 ft 453 kts 181°
2026-05-06 20:30 51.02993 10.21313 26934 ft 455 kts 181°
2026-05-06 20:31 50.99804 10.21258 26659 ft 457 kts 181°
2026-05-06 20:31 50.96629 10.21203 26382 ft 460 kts 181°
2026-05-06 20:31 50.93399 10.21147 26101 ft 462 kts 182°
2026-05-06 20:31 50.90195 10.21091 25815 ft 463 kts 182°
2026-05-06 20:32 50.86933 10.21031 25442 ft 466 kts 182°
2026-05-06 20:32 50.83718 10.20804 24958 ft 465 kts 189°
2026-05-06 20:32 50.80691 10.19238 24353 ft 453 kts 208°
2026-05-06 20:32 50.78275 10.16155 23746 ft 443 kts 229°
2026-05-06 20:33 50.76700 10.12097 23193 ft 435 kts 244°
2026-05-06 20:33 50.75422 10.07782 22681 ft 427 kts 244°
2026-05-06 20:33 50.74154 10.03609 22133 ft 420 kts 243°
2026-05-06 20:33 50.72879 9.99508 21587 ft 414 kts 243°
2026-05-06 20:34 50.71610 9.95488 21039 ft 409 kts 243°
2026-05-06 20:34 50.70336 9.91495 20495 ft 404 kts 243°
2026-05-06 20:34 50.69087 9.87597 19952 ft 400 kts 243°
2026-05-06 20:34 50.67829 9.83685 19409 ft 397 kts 242°
2026-05-06 20:35 50.66588 9.79838 18873 ft 393 kts 243°
2026-05-06 20:35 50.65363 9.76047 18346 ft 390 kts 243°
2026-05-06 20:35 50.64146 9.72290 17810 ft 388 kts 242°
2026-05-06 20:35 50.62615 9.68814 17239 ft 385 kts 226°
2026-05-06 20:36 50.60519 9.66235 16695 ft 382 kts 210°
2026-05-06 20:36 50.58092 9.64554 16167 ft 380 kts 202°
2026-05-06 20:36 50.55644 9.63082 15632 ft 378 kts 201°
2026-05-06 20:36 50.53176 9.61606 15087 ft 375 kts 201°
2026-05-06 20:37 50.50746 9.60140 14552 ft 373 kts 201°
2026-05-06 20:37 50.48338 9.58663 14022 ft 371 kts 203°
2026-05-06 20:37 50.45971 9.56980 13493 ft 369 kts 206°
2026-05-06 20:37 50.43701 9.55222 12990 ft 366 kts 207°
2026-05-06 20:38 50.41441 9.53468 12472 ft 364 kts 207°
2026-05-06 20:38 50.39177 9.51710 11946 ft 362 kts 207°
2026-05-06 20:38 50.36903 9.49948 11419 ft 360 kts 207°
2026-05-06 20:38 50.34679 9.48227 10907 ft 358 kts 207°
2026-05-06 20:39 50.32484 9.46530 10629 ft 348 kts 207°
2026-05-06 20:39 50.30328 9.44866 10447 ft 335 kts 207°
2026-05-06 20:39 50.28276 9.43284 10266 ft 324 kts 208°
2026-05-06 20:39 50.26281 9.41681 10022 ft 315 kts 213°
2026-05-06 20:40 50.24775 9.39320 9806 ft 304 kts 240°
2026-05-06 20:40 50.23975 9.36321 9587 ft 295 kts 251°
2026-05-06 20:40 50.23317 9.33339 9290 ft 291 kts 251°
2026-05-06 20:40 50.22649 9.30329 8990 ft 286 kts 251°
2026-05-06 20:41 50.21997 9.27447 8707 ft 282 kts 250°
2026-05-06 20:41 50.21345 9.24597 8328 ft 272 kts 250°
2026-05-06 20:41 50.20713 9.21856 7819 ft 266 kts 250°
2026-05-06 20:41 50.20093 9.19181 7396 ft 258 kts 250°
2026-05-06 20:42 50.19483 9.16556 7035 ft 257 kts 251°
2026-05-06 20:42 50.18872 9.13927 6682 ft 257 kts 251°
2026-05-06 20:42 50.18253 9.11260 6339 ft 257 kts 251°
2026-05-06 20:42 50.17643 9.08643 6001 ft 257 kts 251°
2026-05-06 20:43 50.17033 9.06030 5651 ft 258 kts 251°
2026-05-06 20:43 50.16415 9.03383 5301 ft 258 kts 251°
2026-05-06 20:43 50.15808 9.00797 5141 ft 250 kts 251°
2026-05-06 20:43 50.15236 8.98274 5036 ft 239 kts 253°
2026-05-06 20:44 50.14744 8.95854 4944 ft 228 kts 254°
2026-05-06 20:44 50.14251 8.93533 4965 ft 226 kts 252°
2026-05-06 20:44 50.13727 8.91211 4979 ft 226 kts 252°
2026-05-06 20:44 50.13186 8.88915 5000 ft 223 kts 252°
2026-05-06 20:45 50.12648 8.86687 4864 ft 216 kts 251°
2026-05-06 20:45 50.12123 8.84545 4765 ft 212 kts 250°
2026-05-06 20:45 50.11601 8.82414 4530 ft 210 kts 251°
2026-05-06 20:45 50.11079 8.80285 4282 ft 211 kts 251°
2026-05-06 20:46 50.10556 8.78148 3947 ft 209 kts 251°
2026-05-06 20:46 50.10038 8.76023 3621 ft 210 kts 251°
2026-05-06 20:46 50.09521 8.73896 3328 ft 207 kts 252°
2026-05-06 20:46 50.09021 8.71841 3010 ft 198 kts 252°
2026-05-06 20:47 50.08552 8.69903 2717 ft 189 kts 252°
2026-05-06 20:47 50.08100 8.68034 2443 ft 180 kts 252°
2026-05-06 20:47 50.07671 8.66255 2191 ft 171 kts 253°
2026-05-06 20:47 50.07269 8.64586 1971 ft 159 kts 253°
2026-05-06 20:48 50.06895 8.63035 1763 ft 148 kts 253°
2026-05-06 20:48 50.06545 8.61575 1546 ft 141 kts 253°
2026-05-06 20:48 50.06205 8.60154 1353 ft 140 kts 253°
2026-05-06 20:48 50.05862 8.58725 1152 ft 141 kts 253°
2026-05-06 20:49 50.05521 8.57303 952 ft 140 kts 253°
2026-05-06 20:49 50.05194 8.55947 752 ft 139 kts 252°
2026-05-06 20:49 50.04858 8.54534 565 ft 138 kts 253°
2026-05-06 20:49 50.04529 8.53159 375 ft 136 kts 250°
2026-05-06 20:50 50.04223 8.51862 335 ft 109 kts 250°
2026-05-06 20:50 50.04030 8.51122 330 ft 37 kts 236°
2026-05-06 20:50 50.03904 8.50912 327 ft 16 kts 220°
2026-05-06 20:50 50.03829 8.50829 326 ft 9 kts 193°
2026-05-06 20:51 50.03786 8.50887 327 ft 9 kts 97°
2026-05-06 20:51 50.03797 8.50984 328 ft 8 kts 76°
2026-05-06 20:51 50.03799 8.50993 328 ft 0 kts 73°
2026-05-06 20:52 50.03801 8.51001 328 ft 6 kts 73°
2026-05-06 20:52 50.03828 8.51122 330 ft 12 kts 70°
2026-05-06 20:53 50.03859 8.51246 331 ft 12 kts 69°
2026-05-06 20:53 50.03890 8.51372 332 ft 12 kts 69°
2026-05-06 20:53 50.03927 8.51529 333 ft 21 kts 70°
2026-05-06 20:53 50.03977 8.51740 334 ft 20 kts 70°
2026-05-06 20:54 50.04026 8.51943 334 ft 19 kts 69°
2026-05-06 20:54 50.04072 8.52137 336 ft 18 kts 70°
2026-05-06 20:54 50.04116 8.52319 338 ft 17 kts 70°
2026-05-06 20:54 50.04157 8.52492 339 ft 16 kts 70°
2026-05-06 20:55 50.04196 8.52653 341 ft 15 kts 70°
2026-05-06 20:55 50.04239 8.52838 343 ft 22 kts 70°
2026-05-06 20:55 50.04301 8.53094 346 ft 25 kts 69°
2026-05-06 20:55 50.04361 8.53340 348 ft 23 kts 69°
2026-05-06 20:56 50.04400 8.53574 349 ft 22 kts 85°
2026-05-06 20:56 50.04417 8.53805 349 ft 21 kts 83°
2026-05-06 20:56 50.04430 8.54028 350 ft 20 kts 85°
2026-05-06 20:56 50.04445 8.54253 348 ft 20 kts 83°
2026-05-06 20:57 50.04453 8.54476 348 ft 20 kts 98°
2026-05-06 20:57 50.04400 8.54669 348 ft 19 kts 130°
2026-05-06 20:57 50.04288 8.54788 348 ft 19 kts 158°
2026-05-06 20:57 50.04167 8.54853 347 ft 18 kts 162°
2026-05-06 20:58 50.04059 8.54915 347 ft 12 kts 156°
2026-05-06 20:58 50.04023 8.55028 347 ft 16 kts 79°
2026-05-06 20:58 50.04076 8.55257 348 ft 26 kts 70°
2026-05-06 20:58 50.04140 8.55521 349 ft 25 kts 70°
2026-05-06 20:59 50.04199 8.55769 351 ft 23 kts 70°
2026-05-06 20:59 50.04254 8.55999 352 ft 22 kts 70°
2026-05-06 20:59 50.04317 8.56265 353 ft 27 kts 70°
2026-05-06 20:59 50.04382 8.56536 355 ft 25 kts 70°
2026-05-06 21:00 50.04436 8.56766 356 ft 18 kts 70°
2026-05-06 21:00 50.04498 8.56869 357 ft 13 kts 17°
2026-05-06 21:00 50.04590 8.56904 358 ft 13 kts 13°
2026-05-06 21:00 50.04668 8.56924 358 ft 9 kts 343°
2026-05-06 21:01 50.04699 8.56864 358 ft 5 kts 295°
2026-05-06 21:01 50.04702 8.56854 358 ft 0 kts 295°
2026-05-06 21:01 50.04702 8.56851 358 ft 0 kts 295°